Weather History for Bogalusa, LA

Change the Weather History Date:

Wednesday, November 21, 2012

  Actual Average Record
Temperature  
Mean Temperature 58 °F -  
Max Temperature 75 °F 67 °F 70 °F (2013)
Min Temperature 40 °F 43 °F 48 °F (2013)
Degree Days  
Heating Degree Days 8    
Growing Degree Days 8 (Base 50)    
Moisture  
Dew Point 46 °F    
Average Humidity 80    
Maximum Humidity 100    
Minimum Humidity 27    
Precipitation  
Precipitation 0.00 in - - ()
Sea Level Pressure  
Sea Level Pressure 30.19 in    
Wind  
Wind Speed 1 mph ()    
Max Wind Speed 10 mph    
Max Gust Speed -    
Visibility 9.5 miles    
Events      
Averages and records for this station are not official NWS values.
T = Trace of Precipitation, MM = Missing Value Source: Averaged Metar Reports

Daily Weather History Graph

Daily Weather History Graph

Search for Another Location

Airport:

Trip Planner

Search our weather history database for the weather conditions in past years. The results will help you decide how hot, cold, wet, or windy it might be!

Date:

Astronomy

Nov. 21, 2012 Rise Set
Actual Time 6:31 AM CST 4:59 PM CST
Civil Twilight 6:05 AM CST 5:25 PM CST
Nautical Twilight 5:36 AM CST 5:54 PM CST
Astronomical Twilight 5:07 AM CST 6:23 PM CST
Moon 12:53 PM CST (11/21) 12:15 AM CST (11/21)
Length of Visible Light 11h 19m
Length of Day
10h 27m
First Quarter, 62% of the Moon is Illuminated
Nov 21
First Quarter
Nov 28
Full
Dec 6
Last Quarter
Dec 13
New
Dec 19
First Quarter

Hourly Weather History & Observations

Time (CST) Temp. Dew Point Humidity Pressure Visibility Wind Dir Wind Speed Gust Speed Precip Events Conditions
12:15 AM 44.8 °F 44.8 °F 100% 30.18 in 7.0 mi Calm Calm - N/A   Unknown
12:35 AM 44.2 °F 44.2 °F 100% 30.18 in 10.0 mi Calm Calm - N/A   Unknown
12:55 AM 43.3 °F 43.3 °F 100% 30.18 in 10.0 mi Calm Calm - N/A   Unknown
1:15 AM 43.7 °F 43.7 °F 100% 30.18 in 10.0 mi Calm Calm - N/A   Unknown
1:35 AM 43.2 °F 43.2 °F 100% 30.18 in 10.0 mi Calm Calm - N/A   Unknown
1:55 AM 43.2 °F 43.2 °F 100% 30.18 in 10.0 mi Calm Calm - N/A   Unknown
2:15 AM 43.2 °F 43.2 °F 100% 30.18 in 10.0 mi Calm Calm - N/A   Unknown
2:35 AM 42.8 °F 42.8 °F 100% 30.18 in 10.0 mi Calm Calm - N/A   Unknown
2:55 AM 42.8 °F 42.8 °F 100% 30.18 in 10.0 mi Calm Calm - N/A   Unknown
3:15 AM 42.6 °F 42.6 °F 100% 30.18 in 10.0 mi Calm Calm - N/A   Unknown
3:35 AM 42.1 °F 42.1 °F 100% 30.18 in 7.0 mi Calm Calm - N/A   Unknown
3:55 AM 41.4 °F 41.4 °F 100% 30.18 in 10.0 mi Calm Calm - N/A   Unknown
4:15 AM 40.3 °F 40.3 °F 100% 30.18 in 10.0 mi Calm Calm - N/A   Unknown
4:35 AM 40.8 °F 40.8 °F 100% 30.18 in 10.0 mi Calm Calm - N/A   Unknown
4:55 AM 40.6 °F 40.6 °F 100% 30.18 in 10.0 mi Calm Calm - N/A   Unknown
5:15 AM 41.2 °F 41.2 °F 100% 30.19 in 10.0 mi Calm Calm - N/A   Unknown
5:35 AM 40.6 °F 40.6 °F 100% 30.19 in 10.0 mi Calm Calm - N/A   Unknown
5:55 AM 40.8 °F 40.8 °F 100% 30.19 in 10.0 mi Calm Calm - N/A   Unknown
6:15 AM 40.3 °F 40.3 °F 100% 30.20 in 7.0 mi Calm Calm - N/A   Unknown
6:35 AM 40.5 °F 40.5 °F 100% 30.21 in 10.0 mi Calm Calm - N/A   Unknown
6:55 AM 41.0 °F 41.0 °F 100% 30.21 in 10.0 mi Calm Calm - N/A   Unknown
7:15 AM 41.9 °F 41.9 °F 100% 30.21 in 10.0 mi Calm Calm - N/A   Unknown
7:35 AM 43.7 °F 43.7 °F 100% 30.22 in 10.0 mi Calm Calm - N/A   Unknown
7:55 AM 45.9 °F 45.9 °F 100% 30.23 in 10.0 mi Calm Calm - N/A   Unknown
8:15 AM 48.7 °F 48.7 °F 100% 30.23 in 10.0 mi Calm Calm - N/A   Unknown
8:35 AM 51.3 °F 51.3 °F 100% 30.23 in 10.0 mi Calm Calm - N/A   Unknown
8:55 AM 54.5 °F 48.2 °F 79% 30.23 in 10.0 mi Calm Calm - N/A   Unknown
9:15 AM 58.5 °F 48.9 °F 71% 30.23 in 10.0 mi Calm Calm - N/A   Unknown
9:35 AM 61.0 °F 49.3 °F 65% 30.23 in 10.0 mi Calm Calm - N/A   Unknown
10:15 AM 66.4 °F 51.8 °F 59% 30.23 in 10.0 mi Calm Calm - N/A   Unknown
10:35 AM 68.5 °F 52.5 °F 57% 30.22 in 10.0 mi Calm Calm - N/A   Unknown
10:55 AM 70.7 °F 52.0 °F 51% 30.22 in 10.0 mi North 4.6 mph - N/A   Unknown
11:15 AM 71.1 °F 50.7 °F 49% 30.21 in 10.0 mi Calm Calm - N/A   Unknown
11:35 AM 72.0 °F 50.9 °F 47% 30.21 in 10.0 mi Calm Calm - N/A   Unknown
11:55 AM 73.4 °F 50.2 °F 44% 30.19 in 10.0 mi North 3.5 mph - N/A   Unknown
12:15 PM 74.5 °F 49.8 °F 42% 30.18 in 10.0 mi NNE 5.8 mph - N/A   Unknown
12:35 PM 75.2 °F 48.0 °F 38% 30.18 in 10.0 mi North 5.8 mph - N/A   Unknown
1:15 PM 75.6 °F 43.2 °F 31% 30.16 in 10.0 mi NNW 8.1 mph - N/A   Unknown
1:35 PM 75.4 °F 43.9 °F 32% 30.15 in 10.0 mi North 4.6 mph - N/A   Unknown
1:55 PM 75.9 °F 43.3 °F 31% 30.15 in 10.0 mi NNW 10.4 mph - N/A   Unknown
2:15 PM 75.0 °F 42.3 °F 31% 30.15 in 10.0 mi North 5.8 mph - N/A   Unknown
2:35 PM 75.7 °F 39.7 °F 27% 30.15 in 10.0 mi North 9.2 mph - N/A   Unknown
2:55 PM 75.4 °F 39.4 °F 27% 30.15 in 10.0 mi North 8.1 mph - N/A   Unknown
3:15 PM 75.2 °F 38.5 °F 27% 30.15 in 10.0 mi North 5.8 mph - N/A   Unknown
3:35 PM 74.7 °F 39.2 °F 28% 30.15 in 10.0 mi North 5.8 mph - N/A   Unknown
3:55 PM 73.4 °F 38.7 °F 28% 30.16 in 10.0 mi NNW 5.8 mph - N/A   Unknown
4:15 PM 71.8 °F 41.9 °F 34% 30.16 in 10.0 mi NNW 3.5 mph - N/A   Unknown
4:35 PM 68.0 °F 46.2 °F 46% 30.16 in 10.0 mi NNW 4.6 mph - N/A   Unknown
4:55 PM 62.2 °F 51.3 °F 67% 30.16 in 10.0 mi NNW 3.5 mph - N/A   Unknown
5:15 PM 59.9 °F 51.3 °F 73% 30.16 in 10.0 mi North 3.5 mph - N/A   Unknown
5:35 PM 56.7 °F 50.5 °F 80% 30.16 in 10.0 mi Calm Calm - N/A   Unknown
6:15 PM 54.5 °F 49.5 °F 83% 30.17 in 10.0 mi Calm Calm - N/A   Unknown
6:35 PM 53.6 °F 53.6 °F 100% 30.18 in 10.0 mi Calm Calm - N/A   Unknown
6:55 PM 52.7 °F 52.7 °F 100% 30.18 in 10.0 mi Calm Calm - N/A   Unknown
7:15 PM 51.6 °F 51.6 °F 100% 30.19 in 10.0 mi Calm Calm - N/A   Unknown
7:35 PM 50.9 °F 50.9 °F 100% 30.19 in 10.0 mi Calm Calm - N/A   Unknown
7:55 PM 50.0 °F 50.0 °F 100% 30.19 in 5.0 mi Calm Calm - N/A   Mist
8:15 PM 50.2 °F 50.2 °F 100% 30.20 in 5.0 mi Calm Calm - N/A   Mist
8:35 PM 47.7 °F 47.7 °F 100% 30.21 in 10.0 mi Calm Calm - N/A   Unknown
8:55 PM 48.2 °F 48.2 °F 100% 30.21 in 10.0 mi Calm Calm - N/A   Unknown
9:15 PM 47.5 °F 47.5 °F 100% 30.21 in 10.0 mi Calm Calm - N/A   Unknown
9:35 PM 46.8 °F 46.8 °F 100% 30.21 in 10.0 mi Calm Calm - N/A   Unknown
9:55 PM 46.2 °F 46.2 °F 100% 30.22 in 5.0 mi Calm Calm - N/A   Mist
10:15 PM 46.0 °F 46.0 °F 100% 30.22 in 4.0 mi Calm Calm - N/A   Mist
10:55 PM 44.1 °F 44.1 °F 100% 30.22 in 10.0 mi Calm Calm - N/A   Unknown
11:15 PM 45.0 °F 45.0 °F 100% 30.21 in 7.0 mi Calm Calm - N/A   Clear
11:35 PM 44.6 °F 44.6 °F 100% 30.21 in 10.0 mi Calm Calm - N/A   Clear
11:55 PM 43.9 °F 43.9 °F 100% 30.21 in 10.0 mi Calm Calm - N/A   Clear